Albuquerque, NM

10:44 AM MDT on August 21, 2017 (GMT -0600)
Albuquerque International Sunport

Weather History for KABQ - August, 2014

Change the Weather History Date:

Saturday, August 16, 2014

  Actual Average Record
Temperature  
Mean Temperature 79 °F 76 °F  
Max Temperature 93 °F 87 °F 99 °F (1936)
Min Temperature 65 °F 65 °F 54 °F (1914)
Degree Days  
Heating Degree Days 0 0  
Month to date heating degree days 0 0  
Since 1 June heating degree days 0 4  
Since 1 July heating degree days 0 0  
Cooling Degree Days 14 11  
Month to date cooling degree days 153 190  
Year to date cooling degree days 1090 1001  
Since 1 June cooling degree days 978 903  
Growing Degree Days 28 (Base 50)    
Moisture  
Dew Point 50 °F    
Average Humidity 47    
Maximum Humidity 78    
Minimum Humidity 15    
Precipitation  
Precipitation T in 0.05 in 0.52 in (2012)
Month to date precipitation 1.18 0.91  
Year to date precipitation 5.79 5.61  
Snow  
Snow 0.00 in - - ()
Month to date snowfall 0.0  
Since 1 June snowfall 0.0  
Since 1 July snowfall 0.0  
Snow Depth 0.00 in    
Sea Level Pressure  
Sea Level Pressure 29.94 in    
Wind  
Wind Speed 7 mph (NE)    
Max Wind Speed 26 mph    
Max Gust Speed 32 mph    
Visibility 10 miles    
Events Rain , Thunderstorm    
T = Trace of Precipitation, MM = Missing Value Source: NWS Daily Summary

Daily Weather History Graph

Daily Weather History Graph

Search for Another Location

Airport or City:

Trip Planner

Search our weather history database for the weather conditions in past years. The results will help you decide how hot, cold, wet, or windy it might be!

Date:

Astronomy

Aug. 16, 2014 Rise Set
Actual Time 6:27 AM MDT 7:53 PM MDT
Civil Twilight 6:00 AM MDT 8:20 PM MDT
Nautical Twilight 5:28 AM MDT 8:52 PM MDT
Astronomical Twilight 4:54 AM MDT 9:25 PM MDT
Moon 11:56 PM MDT (8/16) 12:59 PM MDT (8/16)
Length of Visible Light 14h 19m
Length of Day
13h 26m
Waning Gibbous, 58% of the Moon is Illuminated
Aug 16
Waning Gibbous
Aug 17
Last Quarter
Aug 25
New
Sep 2
First Quarter
Sep 8
Full

Hourly Weather History & Observations

Time (MDT) Temp. Heat Index Dew Point Humidity Pressure Visibility Wind Dir Wind Speed Gust Speed Precip Events Conditions
12:52 AM 70.0 °F - 55.0 °F 59% 29.95 in 10.0 mi ESE 3.5 mph - N/A   Mostly Cloudy
1:52 AM 66.9 °F - 55.9 °F 68% 29.95 in 10.0 mi East 5.8 mph - N/A   Mostly Cloudy
2:52 AM 66.0 °F - 57.0 °F 73% 29.93 in 10.0 mi ESE 4.6 mph - N/A   Scattered Clouds
3:52 AM 66.9 °F - 55.0 °F 66% 29.93 in 10.0 mi East 3.5 mph - N/A   Mostly Cloudy
4:52 AM 66.0 °F - 57.9 °F 75% 29.94 in 10.0 mi NNW 3.5 mph - N/A   Scattered Clouds
5:52 AM 64.9 °F - 57.9 °F 78% 29.96 in 10.0 mi North 5.8 mph - N/A   Mostly Cloudy
6:52 AM 66.0 °F - 53.1 °F 63% 29.97 in 10.0 mi NNE 5.8 mph - N/A   Mostly Cloudy
7:52 AM 68.0 °F - 55.9 °F 65% 29.99 in 10.0 mi North 6.9 mph - N/A   Scattered Clouds
8:52 AM 71.1 °F - 57.0 °F 61% 30.02 in 10.0 mi NW 4.6 mph - N/A   Partly Cloudy
9:52 AM 73.0 °F - 55.0 °F 53% 30.02 in 10.0 mi NNW 4.6 mph - N/A   Partly Cloudy
10:52 AM 75.9 °F - 54.0 °F 46% 30.03 in 10.0 mi Calm Calm - N/A   Partly Cloudy
11:52 AM 81.0 °F 80.4 °F 53.1 °F 38% 29.99 in 10.0 mi Variable 4.6 mph - N/A   Partly Cloudy
12:52 PM 84.0 °F - 52.0 °F 33% 29.96 in 10.0 mi Variable 4.6 mph - N/A   Partly Cloudy
1:52 PM 88.0 °F - 50.0 °F 27% 29.93 in 10.0 mi Variable 4.6 mph - N/A   Partly Cloudy
2:52 PM 90.0 °F - 44.1 °F 20% 29.91 in 10.0 mi NNE 9.2 mph - N/A   Partly Cloudy
3:52 PM 91.9 °F - 42.1 °F 18% 29.87 in 10.0 mi North 5.8 mph - N/A   Scattered Clouds
4:52 PM 91.9 °F - 43.0 °F 18% 29.85 in 10.0 mi NNW 5.8 mph - N/A   Scattered Clouds
5:52 PM 93.0 °F - 39.9 °F 16% 29.83 in 10.0 mi North 9.2 mph - N/A   Scattered Clouds
6:52 PM 90.0 °F - 41.0 °F 18% 29.83 in 10.0 mi North 4.6 mph - N/A   Scattered Clouds
7:52 PM 88.0 °F - 46.9 °F 24% 29.84 in 10.0 mi WSW 4.6 mph - N/A   Scattered Clouds
8:52 PM 84.0 °F - 46.0 °F 26% 29.87 in 10.0 mi East 18.4 mph - N/A   Mostly Cloudy
8:59 PM 82.9 °F - 46.0 °F 27% 30.14 in 10.0 mi East 17.3 mph 24.2 mph 0.00 in Rain , Thunderstorm Light Thunderstorms and Rain
9:52 PM 82.0 °F - 44.1 °F 26% 29.94 in 10.0 mi SE 17.3 mph 24.2 mph 0.00 in Thunderstorm Thunderstorm
10:40 PM 80.1 °F - 46.9 °F 31% 30.19 in 10.0 mi SE 11.5 mph - N/A   Mostly Cloudy
10:52 PM 79.0 °F - 48.0 °F 34% 29.91 in 10.0 mi ESE 17.3 mph - N/A   Mostly Cloudy
11:52 PM 77.0 °F - 48.9 °F 37% 29.92 in 10.0 mi SE 13.8 mph - N/A   Scattered Clouds